Location: Little Maitland River
(43.8022°N, 81.1549°W)
Time: 23:23:48
(UTC+00:00)

USA 81 - Pass Details

Date: 09 December 2025
Orbit: 783 x 785 km, 85.0° (Epoch: 19 January)

Event Time Altitude Azimuth Distance (km) Brightness Sun altitude
Rises 00:04:45 0° 354° (N) 3,287 7.3 -24.0°
Reaches altitude 10° 00:07:07 10° 354° (N) 2,354 6.5 -24.4°
Maximum altitude 00:12:24 84° 267° (W) 796 4.0 -25.3°
Drops below altitude 10° 00:17:39 10° 180° (S) 2,334 6.6 -26.3°
Sets 00:19:59 0° 179° (S) 3,258 7.3 -26.7°
